Time,TemperatureF,DewpointF,PressureIn,WindDirection,WindDirectionDegrees,WindSpeedMPH,WindSpeedGustMPH,Humidity,HourlyPrecipIn,Conditions,Clouds,dailyrainin,SoftwareType,DateUTC
2013-05-30 00:02:00,78.3,47.4,29.81,West,270,0.2,4.0,34,0.00,,,0.00,WUHU216HW,2013-05-30 07:02:00,
2013-05-30 00:12:00,77.9,47.2,29.81,West,270,1.1,1.8,34,0.00,,,0.00,WUHU216HW,2013-05-30 07:12:00,
2013-05-30 00:22:00,77.4,47.4,29.81,WSW,248,0.7,0.7,35,0.00,,,0.00,WUHU216HW,2013-05-30 07:22:00,
2013-05-30 00:32:00,76.9,47.0,29.81,West,270,0.0,0.9,35,0.00,,,0.00,WUHU216HW,2013-05-30 07:32:00,
2013-05-30 00:42:00,76.3,46.5,29.81,WSW,248,1.1,1.1,35,0.00,,,0.00,WUHU216HW,2013-05-30 07:42:00,
2013-05-30 00:52:00,76.0,47.7,29.82,WSW,248,1.6,2.2,37,0.00,,,0.00,WUHU216HW,2013-05-30 07:52:00,
2013-05-30 01:02:00,75.6,47.3,29.82,NNW,338,0.9,2.5,37,0.00,,,0.00,WUHU216HW,2013-05-30 08:02:00,
2013-05-30 01:13:00,75.6,48.2,29.82,SW,225,1.1,3.4,38,0.00,,,0.00,WUHU216HW,2013-05-30 08:13:00,
2013-05-30 01:23:00,75.4,48.0,29.82,West,270,1.8,1.8,38,0.00,,,0.00,WUHU216HW,2013-05-30 08:23:00,
2013-05-30 01:33:00,75.2,48.6,29.82,SW,225,0.0,2.5,39,0.00,,,0.00,WUHU216HW,2013-05-30 08:33:00,
2013-05-30 01:43:00,75.2,48.6,29.82,West,270,1.1,2.7,39,0.00,,,0.00,WUHU216HW,2013-05-30 08:43:00,
2013-05-30 01:53:00,75.2,48.6,29.82,NW,315,0.0,2.0,39,0.00,,,0.00,WUHU216HW,2013-05-30 08:53:00,
2013-05-30 02:03:00,74.9,49.0,29.82,NW,315,0.0,1.1,40,0.00,,,0.00,WUHU216HW,2013-05-30 09:03:00,
2013-05-30 02:13:00,74.5,48.7,29.82,North,0,0.0,0.7,40,0.00,,,0.00,WUHU216HW,2013-05-30 09:13:00,
2013-05-30 02:23:00,74.2,49.0,29.82,North,0,0.0,0.4,41,0.00,,,0.00,WUHU216HW,2013-05-30 09:23:00,
2013-05-30 02:33:00,73.8,48.6,29.82,SE,135,0.2,0.2,41,0.00,,,0.00,WUHU216HW,2013-05-30 09:33:00,
2013-05-30 02:43:00,73.4,48.9,29.82,SSE,158,3.4,3.4,42,0.00,,,0.00,WUHU216HW,2013-05-30 09:43:00,
2013-05-30 02:53:00,72.9,48.4,29.82,SE,135,2.9,2.9,42,0.00,,,0.00,WUHU216HW,2013-05-30 09:53:00,
2013-05-30 03:03:00,72.7,48.2,29.82,SSE,158,2.0,3.4,42,0.00,,,0.00,WUHU216HW,2013-05-30 10:03:00,
2013-05-30 03:13:00,72.4,47.9,29.82,SE,135,1.3,2.7,42,0.00,,,0.00,WUHU216HW,2013-05-30 10:13:00,
2013-05-30 03:23:00,72.0,48.2,29.83,West,270,1.3,1.3,43,0.00,,,0.00,WUHU216HW,2013-05-30 10:23:00,
2013-05-30 03:33:00,71.8,48.6,29.84,SE,135,1.8,2.5,44,0.00,,,0.00,WUHU216HW,2013-05-30 10:33:00,
2013-05-30 03:43:00,71.6,49.1,29.83,SSE,158,1.8,2.5,45,0.00,,,0.00,WUHU216HW,2013-05-30 10:43:00,
2013-05-30 03:53:00,71.3,48.7,29.84,South,180,2.2,2.5,45,0.00,,,0.00,WUHU216HW,2013-05-30 10:53:00,
2013-05-30 04:03:00,71.3,48.7,29.83,SE,135,1.8,2.2,45,0.00,,,0.00,WUHU216HW,2013-05-30 11:03:00,
2013-05-30 04:13:00,70.9,49.0,29.84,SSE,158,1.8,2.5,46,0.00,,,0.00,WUHU216HW,2013-05-30 11:13:00,
2013-05-30 04:23:00,70.7,48.9,29.84,SSE,158,1.3,2.2,46,0.00,,,0.00,WUHU216HW,2013-05-30 11:23:00,
2013-05-30 04:33:00,70.6,48.7,29.84,SSE,158,1.1,1.6,46,0.00,,,0.00,WUHU216HW,2013-05-30 11:33:00,
2013-05-30 04:43:00,70.2,48.3,29.85,WSW,248,0.4,0.4,46,0.00,,,0.00,WUHU216HW,2013-05-30 11:43:00,
2013-05-30 04:53:00,70.0,48.2,29.84,West,270,0.0,0.7,46,0.00,,,0.00,WUHU216HW,2013-05-30 11:53:00,
2013-05-30 05:03:00,69.5,48.3,29.85,SSW,203,0.0,0.7,47,0.00,,,0.00,WUHU216HW,2013-05-30 12:03:00,
2013-05-30 05:13:00,69.1,48.0,29.85,SSW,203,0.0,0.9,47,0.00,,,0.00,WUHU216HW,2013-05-30 12:13:00,
2013-05-30 05:23:00,68.9,47.8,29.85,SSE,158,0.0,0.9,47,0.00,,,0.00,WUHU216HW,2013-05-30 12:23:00,
2013-05-30 05:33:00,68.8,47.6,29.85,SSE,158,0.7,0.7,47,0.00,,,0.00,WUHU216HW,2013-05-30 12:33:00,
2013-05-30 05:43:00,68.6,47.5,29.86,South,180,0.4,0.4,47,0.00,,,0.00,WUHU216HW,2013-05-30 12:43:00,
2013-05-30 05:53:00,68.6,48.1,29.86,ESE,113,0.0,1.1,48,0.00,,,0.00,WUHU216HW,2013-05-30 12:53:00,
2013-05-30 06:03:00,69.5,49.5,29.86,ESE,113,0.0,0.4,49,0.00,,,0.00,WUHU216HW,2013-05-30 13:03:00,
2013-05-30 06:13:00,71.8,50.4,29.87,ESE,113,0.0,0.0,47,0.00,,,0.00,WUHU216HW,2013-05-30 13:13:00,
2013-05-30 06:23:00,72.0,50.0,29.87,West,270,0.7,1.6,46,0.00,,,0.00,WUHU216HW,2013-05-30 13:23:00,
2013-05-30 06:33:00,72.0,50.6,29.87,SSW,203,0.2,1.8,47,0.00,,,0.00,WUHU216HW,2013-05-30 13:33:00,
2013-05-30 06:43:00,72.5,51.0,29.87,SSW,203,2.5,2.5,47,0.00,,,0.00,WUHU216HW,2013-05-30 13:43:00,
2013-05-30 06:53:00,73.4,51.8,29.87,SSE,158,0.4,1.8,47,0.00,,,0.00,WUHU216HW,2013-05-30 13:53:00,
2013-05-30 07:03:00,74.7,52.5,29.88,SE,135,0.4,2.5,46,0.00,,,0.00,WUHU216HW,2013-05-30 14:03:00,
2013-05-30 07:13:00,75.8,52.8,29.88,SE,135,0.7,1.8,45,0.00,,,0.00,WUHU216HW,2013-05-30 14:13:00,
2013-05-30 07:24:00,77.0,53.4,29.89,SSE,158,1.1,1.3,44,0.00,,,0.00,WUHU216HW,2013-05-30 14:24:00,
2013-05-30 07:34:00,78.1,53.7,29.89,South,180,0.2,1.3,43,0.00,,,0.00,WUHU216HW,2013-05-30 14:34:00,
2013-05-30 07:44:00,79.2,53.5,29.89,WSW,248,0.2,1.3,41,0.00,,,0.00,WUHU216HW,2013-05-30 14:44:00,
2013-05-30 07:54:00,79.6,53.2,29.89,WNW,293,0.0,1.3,40,0.00,,,0.00,WUHU216HW,2013-05-30 14:54:00,
2013-05-30 08:04:00,80.5,53.3,29.89,East,90,0.4,2.9,39,0.00,,,0.00,WUHU216HW,2013-05-30 15:04:00,
2013-05-30 08:14:00,81.0,53.7,29.90,West,270,0.7,2.2,39,0.00,,,0.00,WUHU216HW,2013-05-30 15:14:00,
2013-05-30 08:24:00,81.7,52.8,29.90,NE,45,2.7,2.7,37,0.00,,,0.00,WUHU216HW,2013-05-30 15:24:00,
2013-05-30 08:34:00,81.7,52.8,29.90,SE,135,2.2,2.2,37,0.00,,,0.00,WUHU216HW,2013-05-30 15:34:00,
2013-05-30 08:44:00,82.6,52.0,29.90,SSW,203,1.8,2.2,35,0.00,,,0.00,WUHU216HW,2013-05-30 15:44:00,
2013-05-30 08:54:00,83.9,52.4,29.90,SE,135,0.0,1.6,34,0.00,,,0.00,WUHU216HW,2013-05-30 15:54:00,
2013-05-30 09:04:00,84.8,51.6,29.90,SSE,158,1.3,2.7,32,0.00,,,0.00,WUHU216HW,2013-05-30 16:04:00,
2013-05-30 09:14:00,85.1,51.9,29.89,SE,135,2.7,4.0,32,0.00,,,0.00,WUHU216HW,2013-05-30 16:14:00,
2013-05-30 09:24:00,86.0,51.1,29.89,South,180,1.1,4.5,30,0.00,,,0.00,WUHU216HW,2013-05-30 16:24:00,
2013-05-30 09:34:00,86.8,50.6,29.89,WNW,293,4.0,4.9,29,0.00,,,0.00,WUHU216HW,2013-05-30 16:34:00,
2013-05-30 09:44:00,87.7,51.4,29.89,NNW,338,1.8,3.4,29,0.00,,,0.00,WUHU216HW,2013-05-30 16:44:00,
2013-05-30 09:54:00,88.4,52.0,29.89,NW,315,1.3,5.4,29,0.00,,,0.00,WUHU216HW,2013-05-30 16:54:00,
2013-05-30 10:04:00,88.9,51.4,29.89,WSW,248,3.4,4.7,28,0.00,,,0.00,WUHU216HW,2013-05-30 17:04:00,
2013-05-30 10:14:00,89.3,49.6,29.89,WNW,293,2.0,4.0,26,0.00,,,0.00,WUHU216HW,2013-05-30 17:14:00,
2013-05-30 10:24:00,89.6,49.9,29.89,WSW,248,0.4,4.7,26,0.00,,,0.00,WUHU216HW,2013-05-30 17:24:00,
2013-05-30 10:35:00,90.4,49.4,29.89,SSE,158,3.4,4.0,25,0.00,,,0.00,WUHU216HW,2013-05-30 17:35:00,
2013-05-30 10:45:00,90.9,47.7,29.90,NNW,338,3.6,4.0,23,0.00,,,0.00,WUHU216HW,2013-05-30 17:45:00,
2013-05-30 10:55:00,90.9,46.5,29.89,North,0,3.4,3.4,22,0.00,,,0.00,WUHU216HW,2013-05-30 17:55:00,
2013-05-30 11:05:00,91.4,45.9,29.89,NNW,338,4.0,5.6,21,0.00,,,0.00,WUHU216HW,2013-05-30 18:05:00,
2013-05-30 11:15:00,92.0,46.4,29.89,WSW,248,4.5,5.8,21,0.00,,,0.00,WUHU216HW,2013-05-30 18:15:00,
2013-05-30 11:25:00,92.9,47.1,29.89,West,270,1.1,4.7,21,0.00,,,0.00,WUHU216HW,2013-05-30 18:25:00,
2013-05-30 11:35:00,92.7,44.1,29.88,SE,135,1.1,3.4,19,0.00,,,0.00,WUHU216HW,2013-05-30 18:35:00,
2013-05-30 11:45:00,92.7,44.1,29.88,NNW,338,2.9,4.9,19,0.00,,,0.00,WUHU216HW,2013-05-30 18:45:00,
2013-05-30 11:55:00,93.4,44.6,29.88,NW,315,2.7,7.6,19,0.00,,,0.00,WUHU216HW,2013-05-30 18:55:00,
2013-05-30 12:05:00,93.8,43.2,29.88,West,270,6.3,6.3,18,0.00,,,0.00,WUHU216HW,2013-05-30 19:05:00,
2013-05-30 12:15:00,94.3,41.9,29.87,WNW,293,4.9,5.6,17,0.00,,,0.00,WUHU216HW,2013-05-30 19:15:00,
2013-05-30 12:25:00,94.9,40.5,29.87,North,0,1.1,4.0,16,0.00,,,0.00,WUHU216HW,2013-05-30 19:25:00,
2013-05-30 12:35:00,95.6,41.1,29.87,WSW,248,6.0,7.4,16,0.00,,,0.00,WUHU216HW,2013-05-30 19:35:00,
2013-05-30 12:45:00,95.9,41.4,29.87,NNW,338,3.1,5.8,16,0.00,,,0.00,WUHU216HW,2013-05-30 19:45:00,
2013-05-30 12:55:00,95.8,41.2,29.87,North,0,6.0,8.1,16,0.00,,,0.00,WUHU216HW,2013-05-30 19:55:00,
2013-05-30 13:05:00,95.6,41.1,29.86,NW,315,3.1,10.1,16,0.00,,,0.00,WUHU216HW,2013-05-30 20:05:00,
2013-05-30 13:16:00,95.8,41.2,29.86,North,0,4.9,5.4,16,0.00,,,0.00,WUHU216HW,2013-05-30 20:16:00,
2013-05-30 13:26:00,95.9,39.6,29.86,NW,315,9.6,9.6,15,0.00,,,0.00,WUHU216HW,2013-05-30 20:26:00,
2013-05-30 13:36:00,95.9,36.0,29.85,NNE,23,4.3,9.2,13,0.00,,,0.00,WUHU216HW,2013-05-30 20:36:00,
2013-05-30 13:46:00,95.9,36.0,29.85,ESE,113,1.8,7.8,13,0.00,,,0.00,WUHU216HW,2013-05-30 20:46:00,
2013-05-30 13:56:00,96.7,36.5,29.85,WNW,293,5.4,7.2,13,0.00,,,0.00,WUHU216HW,2013-05-30 20:56:00,
2013-05-30 14:06:00,97.0,36.9,29.85,North,0,2.5,7.4,13,0.00,,,0.00,WUHU216HW,2013-05-30 21:06:00,
2013-05-30 14:16:00,97.2,37.0,29.85,SW,225,2.2,5.6,13,0.00,,,0.00,WUHU216HW,2013-05-30 21:16:00,
2013-05-30 14:26:00,97.2,35.2,29.84,ENE,68,2.7,9.4,12,0.00,,,0.00,WUHU216HW,2013-05-30 21:26:00,
2013-05-30 14:36:00,97.2,35.2,29.84,North,0,6.0,8.3,12,0.00,,,0.00,WUHU216HW,2013-05-30 21:36:00,
2013-05-30 14:46:00,97.4,35.4,29.83,NNW,338,4.3,6.3,12,0.00,,,0.00,WUHU216HW,2013-05-30 21:46:00,
2013-05-30 14:56:00,97.9,35.8,29.84,North,0,5.1,13.4,12,0.00,,,0.00,WUHU216HW,2013-05-30 21:56:00,
2013-05-30 15:06:00,98.1,35.9,29.83,NNW,338,7.4,8.5,12,0.00,,,0.00,WUHU216HW,2013-05-30 22:06:00,
2013-05-30 15:16:00,97.0,33.3,29.83,ENE,68,3.4,7.4,11,0.00,,,0.00,WUHU216HW,2013-05-30 22:16:00,
2013-05-30 15:26:00,97.0,35.1,29.83,WNW,293,4.0,9.2,12,0.00,,,0.00,WUHU216HW,2013-05-30 22:26:00,
2013-05-30 15:36:00,96.8,34.9,29.82,NNW,338,5.1,7.8,12,0.00,,,0.00,WUHU216HW,2013-05-30 22:36:00,
2013-05-30 15:46:00,96.7,34.8,29.82,North,0,1.8,8.3,12,0.00,,,0.00,WUHU216HW,2013-05-30 22:46:00,
2013-05-30 15:56:00,97.0,35.1,29.82,NNW,338,4.0,6.3,12,0.00,,,0.00,WUHU216HW,2013-05-30 22:56:00,
2013-05-30 16:06:00,96.8,34.9,29.81,West,270,4.9,7.4,12,0.00,,,0.00,WUHU216HW,2013-05-30 23:06:00,
2013-05-30 16:16:00,97.0,35.1,29.81,NE,45,7.8,7.8,12,0.00,,,0.00,WUHU216HW,2013-05-30 23:16:00,
2013-05-30 16:27:00,96.8,34.9,29.81,WNW,293,5.1,12.8,12,0.00,,,0.00,WUHU216HW,2013-05-30 23:27:00,
2013-05-30 16:37:00,97.0,35.1,29.80,West,270,4.9,7.6,12,0.00,,,0.00,WUHU216HW,2013-05-30 23:37:00,
2013-05-30 16:47:00,96.8,34.9,29.80,North,0,2.7,8.9,12,0.00,,,0.00,WUHU216HW,2013-05-30 23:47:00,
2013-05-30 16:57:00,96.5,34.7,29.80,NNE,23,2.5,8.9,12,0.00,,,0.00,WUHU216HW,2013-05-30 23:57:00,
2013-05-30 17:07:00,96.3,34.6,29.80,North,0,1.8,4.9,12,0.00,,,0.00,WUHU216HW,2013-05-31 00:07:00,
2013-05-30 17:17:00,96.5,36.5,29.80,NNW,338,3.6,8.7,13,0.00,,,0.00,WUHU216HW,2013-05-31 00:17:00,
2013-05-30 17:27:00,96.5,36.5,29.80,North,0,2.9,6.0,13,0.00,,,0.00,WUHU216HW,2013-05-31 00:27:00,
2013-05-30 17:37:00,96.1,36.2,29.80,NW,315,2.0,7.2,13,0.00,,,0.00,WUHU216HW,2013-05-31 00:37:00,
2013-05-30 17:47:00,95.8,35.9,29.80,North,0,5.8,8.3,13,0.00,,,0.00,WUHU216HW,2013-05-31 00:47:00,
2013-05-30 17:57:00,95.8,35.9,29.79,WSW,248,4.7,5.4,13,0.00,,,0.00,WUHU216HW,2013-05-31 00:57:00,
2013-05-30 18:07:00,95.6,35.7,29.80,NNW,338,1.3,5.4,13,0.00,,,0.00,WUHU216HW,2013-05-31 01:07:00,
2013-05-30 18:17:00,95.4,35.7,29.80,NNW,338,2.0,4.9,13,0.00,,,0.00,WUHU216HW,2013-05-31 01:17:00,
2013-05-30 18:27:00,95.0,35.4,29.80,WNW,293,3.8,4.7,13,0.00,,,0.00,WUHU216HW,2013-05-31 01:27:00,
2013-05-30 18:37:00,94.5,34.9,29.80,NNW,338,1.1,6.3,13,0.00,,,0.00,WUHU216HW,2013-05-31 01:37:00,
2013-05-30 18:47:00,94.0,34.5,29.80,North,0,2.7,4.5,13,0.00,,,0.00,WUHU216HW,2013-05-31 01:47:00,
2013-05-30 18:57:00,93.4,34.0,29.80,North,0,2.2,3.6,13,0.00,,,0.00,WUHU216HW,2013-05-31 01:57:00,
2013-05-30 19:07:00,92.7,35.3,29.80,NW,315,2.5,4.9,14,0.00,,,0.00,WUHU216HW,2013-05-31 02:07:00,
2013-05-30 19:17:00,91.8,36.4,29.81,NW,315,4.3,5.1,15,0.00,,,0.00,WUHU216HW,2013-05-31 02:17:00,
2013-05-30 19:28:00,91.1,35.8,29.81,North,0,3.1,5.1,15,0.00,,,0.00,WUHU216HW,2013-05-31 02:28:00,
2013-05-30 19:38:00,90.5,35.4,29.81,NW,315,2.0,3.4,15,0.00,,,0.00,WUHU216HW,2013-05-31 02:38:00,
2013-05-30 19:48:00,89.6,34.7,29.82,NW,315,0.4,3.6,15,0.00,,,0.00,WUHU216HW,2013-05-31 02:48:00,
2013-05-30 19:58:00,88.9,35.8,29.82,NW,315,1.6,1.8,16,0.00,,,0.00,WUHU216HW,2013-05-31 02:58:00,
2013-05-30 20:08:00,88.2,35.3,29.82,WNW,293,0.9,3.4,16,0.00,,,0.00,WUHU216HW,2013-05-31 03:08:00,
2013-05-30 20:18:00,87.3,36.3,29.83,NW,315,3.1,3.1,17,0.00,,,0.00,WUHU216HW,2013-05-31 03:18:00,
2013-05-30 20:28:00,86.8,35.8,29.83,NNW,338,0.7,2.0,17,0.00,,,0.00,WUHU216HW,2013-05-31 03:28:00,
2013-05-30 20:38:00,86.2,35.4,29.84,NNW,338,0.9,1.6,17,0.00,,,0.00,WUHU216HW,2013-05-31 03:38:00,
2013-05-30 20:48:00,85.7,36.6,29.84,NNW,338,0.7,1.6,18,0.00,,,0.00,WUHU216HW,2013-05-31 03:48:00,
2013-05-30 20:58:00,85.1,36.2,29.84,NNE,23,0.4,1.1,18,0.00,,,0.00,WUHU216HW,2013-05-31 03:58:00,
2013-05-30 21:08:00,84.2,35.5,29.84,NNW,338,0.2,2.5,18,0.00,,,0.00,WUHU216HW,2013-05-31 04:08:00,
2013-05-30 21:18:00,83.7,36.7,29.85,North,0,0.4,1.3,19,0.00,,,0.00,WUHU216HW,2013-05-31 04:18:00,
2013-05-30 21:28:00,83.2,36.4,29.86,NW,315,0.0,1.1,19,0.00,,,0.00,WUHU216HW,2013-05-31 04:28:00,
2013-05-30 21:38:00,82.4,35.7,29.86,NNW,338,0.9,1.6,19,0.00,,,0.00,WUHU216HW,2013-05-31 04:38:00,
2013-05-30 21:48:00,82.1,38.2,29.86,North,0,1.1,1.8,21,0.00,,,0.00,WUHU216HW,2013-05-31 04:48:00,
2013-05-30 21:58:00,81.9,38.1,29.87,North,0,0.7,2.2,21,0.00,,,0.00,WUHU216HW,2013-05-31 04:58:00,
2013-05-30 22:08:00,81.5,38.8,29.87,NW,315,1.1,1.8,22,0.00,,,0.00,WUHU216HW,2013-05-31 05:08:00,
2013-05-30 22:19:00,81.2,38.5,29.87,North,0,1.1,1.1,22,0.00,,,0.00,WUHU216HW,2013-05-31 05:19:00,
2013-05-30 22:29:00,81.0,39.4,29.88,NNW,338,2.5,2.5,23,0.00,,,0.00,WUHU216HW,2013-05-31 05:29:00,
2013-05-30 22:39:00,80.6,41.2,29.88,NW,315,2.5,2.9,25,0.00,,,0.00,WUHU216HW,2013-05-31 05:39:00,
2013-05-30 22:49:00,80.5,45.3,29.88,NNW,338,3.4,4.3,29,0.00,,,0.00,WUHU216HW,2013-05-31 05:49:00,
2013-05-30 22:59:00,80.6,49.5,29.88,NNW,338,5.6,6.9,34,0.00,,,0.00,WUHU216HW,2013-05-31 05:59:00,
2013-05-30 23:09:00,80.8,52.8,29.88,NNW,338,3.4,6.7,38,0.00,,,0.00,WUHU216HW,2013-05-31 06:09:00,
2013-05-30 23:19:00,80.8,52.0,29.88,NW,315,5.1,5.6,37,0.00,,,0.00,WUHU216HW,2013-05-31 06:19:00,
2013-05-30 23:29:00,80.6,51.8,29.88,NW,315,1.3,5.4,37,0.00,,,0.00,WUHU216HW,2013-05-31 06:29:00,
2013-05-30 23:39:00,80.5,52.5,29.88,NNW,338,1.8,5.4,38,0.00,,,0.00,WUHU216HW,2013-05-31 06:39:00,
2013-05-30 23:49:00,80.3,52.3,29.89,NNW,338,2.9,6.3,38,0.00,,,0.00,WUHU216HW,2013-05-31 06:49:00,
2013-05-30 23:59:00,79.9,52.7,29.89,West,270,3.4,3.4,39,0.00,,,0.00,WUHU216HW,2013-05-31 06:59:00,